Glendive, MT

9:07 PM MST on November 20, 2019 (GMT -0700)
Dawson Community

Weather History for KGDV - October, 2019

Change the Weather History Date:

Friday, October 18, 2019

  Actual Average Record
Temperature  
Mean Temperature 49 °F 47 °F  
Max Temperature 61 °F 59 °F 84 °F (2003)
Min Temperature 37 °F 35 °F 18 °F (2006)
Degree Days  
Heating Degree Days 16 18  
Month to date heating degree days 404 261  
Year to date heating degree days 6271 4660  
Since 1 July heating degree days 705 368  
Cooling Degree Days 0 0  
Month to date cooling degree days 0 0  
Year to date cooling degree days 465 382  
Since 1 July cooling degree days 465 382  
Moisture  
Dew Point 32 °F    
Average Humidity 51    
Maximum Humidity 76    
Minimum Humidity 32    
Precipitation  
Precipitation T in 0.04 in 0.02 in (2004)
Month to date precipitation 0.40 0.75  
Year to date precipitation 17.57 12.41  
Sea Level Pressure  
Sea Level Pressure 29.58 in    
Wind  
Wind Speed 18 mph (WNW)    
Max Wind Speed 25 mph    
Max Gust Speed 31 mph    
Visibility 10 miles    
Events Rain    
T = Trace of Precipitation, MM = Missing Value Source: NWS Daily Summary

Daily Weather History Graph

Daily Weather History Graph

Search for Another Location

Airport or City:

Astronomy

Oct. 18, 2019 Rise Set
Actual Time 7:21 AM MDT 6:06 PM MDT
Civil Twilight 6:50 AM MDT 6:37 PM MDT
Nautical Twilight 6:15 AM MDT 7:12 PM MDT
Astronomical Twilight 5:39 AM MDT 7:48 PM MDT
Moon 9:09 PM MDT (10/18) 12:12 PM MDT (10/18)
Length of Visible Light 11h 46m
Length of Day
10h 45m
Waning Gibbous, 78% of the Moon is Illuminated
Oct 18
Waning Gibbous
Oct 21
Last Quarter
Oct 27
New
Nov 4
First Quarter
Nov 12
Full

Hourly Weather History & Observations

Time (MDT) Temp. Windchill Dew Point Humidity Pressure Visibility Wind Dir Wind Speed Gust Speed Precip Events Conditions
12:56 AM 51.1 °F - 37.0 °F 59% 29.44 in 10.0 mi NW 21.9 mph 28.8 mph N/A   Clear
1:56 AM 51.1 °F - 36.0 °F 56% 29.45 in 10.0 mi NW 25.3 mph 29.9 mph N/A   Clear
2:56 AM 51.1 °F - 36.0 °F 56% 29.46 in 10.0 mi NW 25.3 mph 31.1 mph N/A   Clear
3:56 AM 48.9 °F - 36.0 °F 61% 29.50 in 10.0 mi WNW 20.7 mph 26.5 mph N/A   Clear
4:56 AM 48.9 °F - 34.0 °F 56% 29.51 in 10.0 mi NW 16.1 mph 21.9 mph N/A   Clear
5:56 AM 50.0 °F - 32.0 °F 50% 29.55 in 10.0 mi WNW 12.7 mph - N/A   Partly Cloudy
6:56 AM 48.9 °F - 33.1 °F 54% 29.57 in 10.0 mi SW 5.8 mph - N/A   Overcast
7:56 AM 48.0 °F - 34.0 °F 58% 29.57 in 10.0 mi West 13.8 mph - 0.00 in   Overcast
8:56 AM 48.9 °F - 33.1 °F 54% 29.58 in 10.0 mi West 18.4 mph 24.2 mph N/A   Mostly Cloudy
9:56 AM 50.0 °F - 32.0 °F 50% 29.59 in 10.0 mi West 17.3 mph - N/A   Partly Cloudy
10:56 AM 54.0 °F - 30.9 °F 41% 29.57 in 10.0 mi WNW 19.6 mph 26.5 mph N/A   Clear
11:56 AM 55.0 °F - 30.9 °F 40% 29.57 in 10.0 mi West 16.1 mph - N/A   Clear
12:56 PM 57.9 °F - 30.9 °F 36% 29.56 in 10.0 mi WNW 19.6 mph 26.5 mph N/A   Clear
1:56 PM 60.1 °F - 30.0 °F 32% 29.55 in 10.0 mi West 20.7 mph 27.6 mph N/A   Clear
2:56 PM 59.0 °F - 28.9 °F 32% 29.55 in 10.0 mi West 18.4 mph 25.3 mph N/A   Partly Cloudy
3:56 PM 59.0 °F - 28.9 °F 32% 29.57 in 10.0 mi West 18.4 mph 24.2 mph N/A   Clear
4:56 PM 57.9 °F - 30.0 °F 35% 29.58 in 10.0 mi West 16.1 mph - N/A   Clear
5:56 PM 51.1 °F - 30.0 °F 44% 29.60 in 10.0 mi West 8.1 mph - N/A   Partly Cloudy
6:56 PM 44.1 °F 38.6 °F 30.0 °F 58% 29.64 in 10.0 mi West 10.4 mph - N/A   Clear
7:56 PM 41.0 °F 34.7 °F 30.0 °F 65% 29.67 in 10.0 mi West 10.4 mph - N/A   Clear
8:56 PM 37.0 °F 30.4 °F 30.0 °F 76% 29.68 in 10.0 mi West 9.2 mph - N/A   Clear
9:56 PM 46.9 °F - 30.0 °F 52% 29.68 in 10.0 mi West 12.7 mph 29.9 mph 0.00 in Rain Light Rain
10:56 PM 41.0 °F 35.8 °F 28.9 °F 62% 29.69 in 10.0 mi West 8.1 mph - 0.00 in   Clear
11:56 PM 44.1 °F 36.5 °F 28.9 °F 55% 29.68 in 10.0 mi West 17.3 mph 25.3 mph N/A   Clear